Location: Aulus
(42.7909°N, 1.3399°E)
Time: 20:04:52
(UTC+00:00)

IRS-1C Rocket - Pass Details

Date: 19 May 2025
Orbit: 798 x 805 km, 98.8° (Epoch: 20 June)

Event Time Altitude Azimuth Distance (km) Brightness Sun altitude
Exits shadow 21:15:29 28° 167° (SSE) 1,486 5.0 -17.7°
Maximum altitude 21:18:25 87° 256° (WSW) 811 4.1 -18.1°
Drops below altitude 10° 21:23:43 10° 345° (NNW) 2,389 7.6 -18.6°
Sets 21:26:03 0° 346° (NNW) 3,323 8.5 -18.9°
